DW1970 Weather Reports


time (UTC)temp
F
wind
direction
speed
knots
gust
knots
rain 1hr
in
rain 24hr
in
rain mn
in
humidity
%
barometer
mb
20260903091555 61 223 0.0 2.6 0.00 0.15 0.00 97 1015.8
20260903090052 61 216 0.0 0.0 0.00 0.15 0.00 97 1015.9
20260903084552 61 216 0.0 0.0 0.00 0.15 0.00 97 1016.1
20260903083049 61 220 0.0 0.0 0.00 0.15 0.00 97 1016.1
20260903081548 61 216 0.0 0.0 0.00 0.15 0.00 97 1016.2
20260903080046 60 221 0.0 0.0 0.00 0.15 0.00 97 1016.2
20260903074544 60 209 0.0 0.0 0.00 0.15 0.00 97 1016.2
20260903073047 60 216 0.0 0.0 0.00 0.15 0.00 97 1016.3
20260903071542 60 216 0.0 0.0 0.00 0.15 0.00 96 1016.4
20260903070044 60 216 0.0 0.0 0.00 0.15 0.00 96 1016.5
20260903064535 60 215 0.0 0.0 0.00 0.15 0.15 96 1016.6
20260903063034 60 230 0.0 0.0 0.00 0.15 0.15 96 1016.6
20260903061553 60 272 0.0 0.0 0.00 0.15 0.15 96 1016.8
20260903060034 60 341 0.0 0.0 0.00 0.15 0.15 96 1016.8
20260903054533 60 341 0.0 0.0 0.00 0.15 0.15 96 1016.8
20260903053034 60 341 0.0 0.0 0.00 0.15 0.15 96 1016.9
20260903051532 60 341 0.0 0.0 0.00 0.15 0.15 96 1017.0
20260903050031 60 341 0.0 0.0 0.00 0.15 0.15 96 1017.1
20260903044530 60 341 0.0 0.0 0.00 0.15 0.15 96 1017.1
20260903043034 60 341 0.0 0.0 0.00 0.15 0.15 96 1017.1
20260903041533 61 341 0.0 0.0 0.00 0.15 0.15 96 1017.0
20260903040029 61 341 0.0 0.0 0.00 0.15 0.15 96 1017.0
20260903034529 61 342 0.0 0.0 0.00 0.15 0.15 96 1016.8
20260903033028 61 306 0.0 0.0 0.00 0.15 0.15 95 1016.7
20260903031531 61 303 0.0 0.0 0.00 0.15 0.15 95 1016.5
20260903030051 61 307 0.0 0.0 0.00 0.15 0.15 95 1016.5
20260903024524 61 314 0.0 0.0 0.00 0.15 0.15 95 1016.5
20260903023020 61 310 0.0 0.0 0.00 0.15 0.15 94 1016.6
20260903021516 61 296 0.0 0.0 0.00 0.15 0.15 94 1016.6
20260903020011 62 294 0.0 0.0 0.00 0.15 0.15 93 1016.6
20260903014507 62 299 0.0 0.0 0.00 0.15 0.15 92 1016.7
20260903013002 62 304 0.0 0.0 0.00 0.15 0.15 91 1016.7
20260903011609 63 300 0.0 0.0 0.00 0.15 0.15 91 1016.8
20260903010114 63 301 0.0 0.0 0.00 0.15 0.15 91 1016.9
20260903004550 64 284 0.0 0.0 0.00 0.15 0.15 88 1016.9
20260903003046 65 304 0.0 0.0 0.00 0.15 0.15 87 1016.9
20260903001546 65 331 0.0 0.0 0.00 0.15 0.15 88 1016.9
20260903000045 65 304 0.0 1.7 0.00 0.15 0.15 87 1017.1
20260902234544 65 300 0.0 0.9 0.00 0.15 0.15 86 1017.2
20260902233040 65 267 0.0 2.6 0.00 0.15 0.15 86 1017.3
20260902231543 65 277 0.0 1.7 0.00 0.15 0.15 87 1017.4
20260902230030 66 294 0.0 1.7 0.00 0.15 0.15 85 1017.5
20260902224543 66 305 0.0 1.7 0.00 0.15 0.15 85 1017.8
20260902223022 65 297 0.0 0.9 0.00 0.15 0.15 83 1017.8
20260902221522 65 328 0.0 0.9 0.00 0.15 0.15 85 1018.0
20260902220028 65 296 0.0 4.3 0.00 0.15 0.15 84 1018.0
20260902214510 65 334 0.0 0.0 0.00 0.15 0.15 86 1018.1
20260902213003 65 318 0.0 0.0 0.00 0.15 0.15 86 1018.1
20260902211559 64 300 0.0 2.6 0.00 0.15 0.15 87 1018.1
20260902210054 64 335 0.0 0.9 0.00 0.15 0.15 91 1018.1
20260902204551 64 335 0.0 0.0 0.00 0.15 0.15 92 1017.9
20260902203046 64 272 0.0 0.0 0.00 0.15 0.15 92 1018.2
20260902201550 63 299 0.0 0.9 0.00 0.15 0.15 93 1018.2
20260902200037 63 328 0.0 4.3 0.00 0.15 0.15 95 1018.1
20260902194535 62 312 0.0 0.0 0.00 0.15 0.15 95 1018.2
20260902193040 62 354 0.0 0.0 0.00 0.15 0.15 97 1018.1
20260902191526 62 316 0.0 0.0 0.00 0.15 0.15 97 1018.3
20260902190021 61 311 0.0 0.0 0.00 0.15 0.15 97 1018.3
20260902184520 61 317 0.0 0.0 0.00 0.15 0.15 97 1018.4
20260902183026 61 305 0.0 0.0 0.00 0.15 0.15 98 1018.5
20260902181518 61 300 0.0 0.0 0.00 0.15 0.15 98 1018.3
20260902180015 60 352 0.0 0.0 0.00 0.15 0.15 98 1018.2
20260902174513 60 335 0.0 0.0 0.00 0.15 0.15 98 1017.9
20260902173016 60 341 0.0 0.0 0.00 0.15 0.15 98 1017.8
20260902171511 59 344 0.0 0.9 0.00 0.15 0.15 97 1017.7
20260902170009 59 330 0.0 0.0 0.00 0.15 0.15 97 1017.6
20260902164508 59 346 0.0 0.0 0.01 0.16 0.15 97 1017.5
20260902163006 59 359 0.0 0.0 0.01 0.16 0.15 97 1017.2
20260902161506 59 338 0.0 0.0 0.01 0.16 0.15 97 1017.0
20260902160007 59 302 0.0 0.0 0.01 0.16 0.15 97 1017.0
20260902154505 59 267 0.0 0.0 0.00 0.15 0.14 97 1017.0
20260902153011 59 225 0.0 0.0 0.00 0.15 0.14 97 1017.1
20260902151503 59 231 0.0 0.0 0.00 0.15 0.14 97 1017.0
20260902150001 59 208 0.0 0.0 0.00 0.15 0.14 97 1016.9
20260902144603 59 220 0.0 0.0 0.00 0.15 0.14 97 1016.9
20260902143059 59 202 0.0 7.0 0.00 0.15 0.14 97 1016.6
20260902141557 59 208 0.0 10.4 0.00 0.15 0.14 97 1016.4
20260902140056 59 215 2.6 11.3 0.00 0.15 0.14 97 1016.1
20260902134557 59 220 0.0 7.8 0.00 0.16 0.14 97 1015.9
20260902133056 60 217 1.7 13.0 0.02 0.16 0.14 97 1015.9
20260902131555 60 220 5.2 13.0 0.03 0.16 0.14 97 1015.6
20260902130051 60 221 5.2 14.8 0.06 0.16 0.14 97 1015.5
20260902124550 60 216 1.7 13.9 0.06 0.16 0.14 97 1015.4
20260902123055 60 220 2.6 13.0 0.04 0.14 0.12 97 1015.5
20260902121545 60 223 0.9 10.4 0.08 0.13 0.11 97 1015.5
20260902120044 60 200 4.3 12.2 0.07 0.10 0.08 97 1015.5
20260902114544 60 213 0.0 9.6 0.07 0.10 0.08 97 1015.6
20260902113040 60 221 0.0 9.6 0.07 0.10 0.08 97 1015.7
20260902111540 60 223 1.7 11.3 0.02 0.05 0.03 96 1015.7
20260902110043 60 221 3.5 13.0 0.00 0.03 0.01 97 1015.5
20260902104536 60 214 5.2 13.0 0.00 0.03 0.01 96 1015.5
20260902103033 60 219 5.2 13.0 0.00 0.03 0.01 96 1015.6
20260902101536 60 198 1.7 12.2 0.00 0.03 0.01 96 1015.8
20260902100030 60 208 1.7 11.3 0.01 0.03 0.01 96 1016.0
20260902094530 60 218 0.9 7.8 0.01 0.04 0.01 95 1016.0
20260902093036 60 193 0.0 0.9 0.01 0.04 0.01 95 1016.0